Flag for U.S.A. Weather past 2 weeks in Spartanburg, South Carolina, U.S.A.

79 °F


Feels Like: 79 °F
Forecast: 54 / 79 °F
Wind: 3 mph from Southeast

Location: Spartanburg Memorial

Current Time: Oct 7, 2015 at 6:08:14 PM

Latest Report: Oct 7, 2015 at 5:35 PM

Visibility: 10 mi

Pressure: 30.06 "Hg

Humidity: 39%

Dew point: 52 °F

Location of SpartanburgLocation

Historic Weather in Spartanburg — Graph


Spartanburg temperature yesterday

Maximum temperature yesterday: 73 °F (at 2:55 PM)
Minimum temperature yesterday: 52 °F (at 7:15 AM)
Average temperature yesterday: 62 °F

Past Weeks' High & Low Weather Summary

High84 °F (Sep 30, 3:15 PM)100% (Sep 26, 9:15 PM)30.21 "Hg (Sep 26, 9:15 PM)
Low52 °F (Oct 3, 2:35 AM)27% (Sep 24, 1:55 PM)29.71 "Hg (Oct 3, 3:15 PM)
Average65 °F82%29.99 "Hg
* Reported Sep 22 4:15 PM — Oct 7 4:35 PM, Spartanburg, Weather by CustomWeather, © 2015

Note: Actual official high and low records may vary slightly from our data, if they occured in-between our weather recording intervals... More about our weather records


Spartanburg weather history for previous 24 hours

Time TempWeatherWind HumidityBarometerVisibility
4:35 PM
Wed, Oct 7
79 °FSunny.5 mph39%30.05 "Hg10 mi
4:15 PM79 °FSunny.No wind39%30.05 "Hg10 mi
3:55 PM79 °FSunny.No wind39%30.06 "Hg10 mi
3:35 PM77 °FSunny.No wind42%30.06 "Hg10 mi
3:15 PM79 °FSunny.No wind39%30.07 "Hg4 mi
2:55 PM77 °FSunny.3 mph42%30.07 "Hg10 mi
2:35 PM77 °FSunny.No wind42%30.08 "Hg10 mi
2:15 PM77 °FSunny.3 mph42%30.09 "Hg10 mi
1:55 PM77 °FSunny.3 mph39%30.09 "Hg7 mi
1:35 PM75 °FSunny.No wind41%30.10 "Hg7 mi
1:15 PM75 °FSunny.No wind41%30.10 "Hg5 mi
12:55 PM73 °FSunny.3 mph44%30.11 "Hg7 mi
12:35 PM73 °FSunny.No wind44%30.11 "Hg7 mi
12:15 PM72 °FSunny.No wind44%30.12 "Hg7 mi
11:55 AM73 °FSunny.No wind44%30.12 "Hg10 mi
11:35 AM72 °FSunny.No wind47%30.12 "Hg7 mi
11:15 AM72 °FSunny.3 mph47%30.12 "Hg10 mi
10:55 AM70 °FSunny.No wind50%30.12 "Hg7 mi
10:35 AM68 °FSunny.No wind53%30.12 "Hg10 mi
10:15 AM68 °FSunny.No wind53%30.12 "Hg10 mi
9:55 AM64 °FSunny.No wind64%30.12 "Hg10 mi
9:35 AM63 °FSunny.3 mph73%30.11 "Hg10 mi
9:15 AM61 °FSunny.No wind77%30.11 "Hg10 mi
8:55 AM59 °FSunny.No wind82%30.10 "Hg10 mi
8:35 AM55 °FSunny.No wind88%30.09 "Hg10 mi
8:15 AM54 °FClear.No wind94%30.09 "Hg10 mi
7:55 AM52 °FClear.No wind94%30.08 "Hg10 mi
7:35 AM52 °FClear.No wind94%30.07 "Hg10 mi
7:15 AM52 °FClear.No wind94%30.07 "Hg10 mi
6:55 AM52 °FClear.No wind94%30.07 "Hg10 mi
6:35 AM52 °FClear.No wind94%30.06 "Hg10 mi
6:15 AM52 °FClear.No wind94%30.05 "Hg10 mi
5:55 AM52 °FClear.No wind94%30.05 "Hg10 mi
5:35 AM52 °FClear.No wind94%30.04 "Hg10 mi
5:15 AM52 °FClear.No wind94%30.04 "Hg10 mi
4:55 AM52 °FClear.No wind94%30.04 "Hg10 mi
4:35 AM54 °FClear.No wind88%30.04 "Hg10 mi
4:15 AM54 °FClear.No wind88%30.04 "Hg10 mi
3:55 AM54 °FClear.No wind94%30.05 "Hg10 mi
3:35 AM54 °FClear.3 mph94%30.05 "Hg10 mi
3:15 AM54 °FClear.3 mph88%30.05 "Hg10 mi
2:55 AM54 °FClear.3 mph94%30.05 "Hg10 mi
2:35 AM54 °FClear.No wind88%30.05 "Hg10 mi
2:15 AM54 °FClear.No wind94%30.05 "Hg10 mi
1:55 AM55 °FClear.No wind88%30.05 "Hg10 mi
1:35 AM55 °FClear.3 mph82%30.05 "Hg10 mi
1:15 AM54 °FClear.3 mph88%30.05 "Hg10 mi
12:55 AM54 °FClear.No wind94%30.05 "Hg10 mi
12:35 AM54 °FClear.No wind88%30.04 "Hg10 mi
12:15 AM54 °FClear.No wind94%30.04 "Hg10 mi
11:35 PM
Tue, Oct 6
54 °FClear.No wind94%30.04 "Hg10 mi
10:55 PM55 °FClear.No wind88%30.05 "Hg10 mi
10:35 PM55 °FPassing clouds.No wind88%30.04 "Hg10 mi
10:15 PM55 °FClear.No wind88%30.04 "Hg10 mi
9:55 PM55 °FClear.No wind88%30.04 "Hg10 mi
9:35 PM57 °FClear.No wind82%30.04 "Hg10 mi
9:15 PM57 °FClear.No wind82%30.04 "Hg10 mi
8:55 PM57 °FClear.No wind82%30.04 "Hg10 mi
8:35 PM59 °FClear.No wind82%30.03 "Hg10 mi
8:15 PM61 °FClear.No wind77%30.02 "Hg10 mi
7:55 PM61 °FSunny.No wind77%30.02 "Hg10 mi
7:35 PM63 °FSunny.No wind73%30.01 "Hg10 mi
7:15 PM64 °FSunny.No wind64%30.01 "Hg10 mi
6:55 PM70 °FSunny.No wind43%30.00 "Hg10 mi
Weather by CustomWeather, © 2015

See weather overviewHow to use our weather pages